Location: downtown San Diego
(32.7310°N, 117.1990°W)
Time: 06:21:48
(UTC-07:00)

CZ-3A R/B - Pass Details

Date: 19 May 2017
Orbit: 118 x 10156 km, 54.7° (Epoch: 28 May)

Event Time Altitude Azimuth Distance (km) Brightness Sun altitude
Rises 21:25:49 0° 211° (SSW) 6,034 6.5 -18.9°
Reaches altitude 10° 21:31:37 10° 207° (SSW) 3,534 5.3 -19.8°
Enters shadow 21:36:48 32° 183° (S) 1,204 2.7 -20.6°
